sat.trackr.live / text

‹ back to catalog

STARLINK-5783

NORAD 56022 · 2023-042AN

PAYLOAD ACTIVE UNKNOWN

§ Identity

Operator
Country
US
Launch date
2023-03-24
Launch site
AFETR
Launch vehicle
Mass (kg)
RCS (m²)

Purposes: comms

External: N2YO · Heavens-Above · Gunter

§ Orbital elements

Epoch: 2026-09-19T15:36:28.283904Z

Period
94.27 min
Inclination
43.0031°
Eccentricity
0.0001738
Mean motion
15.27578988 rev/d
Perigee alt
481.9 km
Apogee alt
484.2 km
Semi-major
6,861.2 km
B*
-1.8363e-5
RAAN
29.4615°
Arg perigee
266.8315°
Mean anomaly
93.2338°
Rev number
19,270

§ Raw data

STARLINK-57831 56022U 23042AN  26262.65032736 -.00000768  00000+0 -18363-4 0  99932 56022  43.0031  29.4615 0001738 266.8315  93.2338 15.27578988192702

JSON: /api/v1/satellites/56022 · /tle

For live sub-satellite position, see the globe view (requires WebGL).

§ Visibility from observer

Set your observer location to see the next 7 days of passes ≥ 10°. The values pass through the URL so the page stays shareable.

No JS? Fill the form by hand. The geolocation button needs JavaScript.